{"data":{"norad_id":68500,"epoch":"2026-09-20T03:59:43.668960Z","epoch_age_seconds":95304,"freshness":"FRESH","line1":"1 68500U 26067CN  26263.16647765  .00001663  00000+0  16881-3 0  9993","line2":"2 68500  97.7724 220.0286 0003839  72.8128 287.3511 14.92175239 25881","mean_motion":14.92175239,"eccentricity":0.0003839,"inclination_deg":97.7724,"raan_deg":220.0286,"arg_perigee_deg":72.8128,"mean_anomaly_deg":287.3511,"bstar":0.00016881,"rev_number":2588,"period_min":96.503410749868,"perigee_km":588.47886206922,"apogee_km":593.82988398543,"semimajor_km":6969.2913730273,"source":"CELESTRAK","updated_at":"2026-09-20T09:00:24.261258Z"}}